Location: Ripley
(48.3812°N, 115.4473°W)
Time: 00:53:47
(UTC+00:00)

AIST 2D - Visible Passes

Search period start: 30 June 2022 00:00
Search period end: 10 July 2022 00:00
Orbit: 433 x 449 km, 97.1° (Epoch: 28 June)

Date Brightness Start Highest point End Pass type
(mag) Time Alt. Az. Time Alt. Az. Time Alt. Az.
30 Jun ? 05:46:42 10° N 05:49:55 47° WNW 05:53:04 10° SSW visible
01 Jul ? 05:08:56 10° NNE 05:12:12 53° E 05:14:59 13° S visible
01 Jul ? 06:43:04 10° NW 06:44:24 12° WNW 06:45:43 10° W visible
02 Jul ? 04:31:52 10° NE 04:34:18 18° E 04:36:42 10° SE visible
02 Jul ? 06:04:01 10° N 06:06:57 29° WNW 06:09:53 10° SW visible
03 Jul ? 05:25:57 10° NNE 05:29:18 89° WNW 05:32:13 13° SSW visible
04 Jul ? 04:48:29 10° NNE 04:51:26 29° E 04:54:04 12° SSE visible
04 Jul ? 06:21:26 10° NNW 06:23:53 19° WNW 06:26:20 10° WSW visible
05 Jul ? 05:43:01 10° N 05:46:17 52° WNW 05:49:21 11° SSW visible
06 Jul ? 05:05:14 10° NNE 05:08:29 48° E 05:11:10 14° S visible
06 Jul ? 06:39:06 10° NW 06:40:42 13° WNW 06:42:18 10° W visible
07 Jul ? 04:28:10 10° NE 04:30:27 17° E 04:32:43 10° SE visible
07 Jul ? 06:00:08 10° N 06:03:09 32° WNW 06:06:10 10° SW visible
08 Jul ? 05:22:02 10° NNE 05:25:24 82° ESE 05:28:11 14° S visible
09 Jul ? 04:44:32 10° NE 04:47:25 26° E 04:49:56 12° SSE visible
09 Jul ? 06:17:19 10° NNW 06:19:54 21° WNW 06:22:30 10° WSW visible
